Miscellaneous Local Product
Issued by NWS Hastings, NE

Home | Current Version | Previous Version | Text Only | Print | Product List | Glossary Off
Versions: 1 2 3 4 5 6 7 8 9 10 11 12 13 14 15 16 17 18 19 20 21 22 23 24 25 26 27 28 29 30 31 32 33 34 35 36 37 38 39 40 41 42 43 44 45 46 47 48 49 50

000
AXUS43 KGID 220402
MISGRI

GID CWA HOURLY WEATHER ROUNDUP
NATIONAL WEATHER SERVICE HASTINGS NE
1000 PM CST TUE NOV 21 2017

NOTE: "FAIR" INDICATES FEW OR NO CLOUDS BELOW 12,000 FEET WITH NO
SIGNIFICANT WEATHER AND/OR OBSTRUCTIONS TO VISIBILITY.

...SOUTH CENTRAL NEBRASKA...

CITY           SKY/WX    TMP DP  RH WIND       PRES   REMARKS
GRAND ISLAND   CLOUDY    17  11  77 NW6       30.41R WCI   9
KEARNEY        CLEAR     19  10  68 NE3       30.38S
HASTINGS       CLOUDY    13   6  74 W3        30.41R
ORD            CLEAR     13   8  81 CALM      30.35F
YORK           CLOUDY    19  14  79 N5        30.41R WCI  13
AURORA         CLOUDY    16   9  75 N6        30.39S WCI   7
LEXINGTON      CLOUDY    23  14  68 CALM      30.36F
HOLDREGE       CLOUDY    20  10  66 CALM      30.38R
HEBRON         CLOUDY    23  13  65 NW3       30.42S

...NEBRASKA PANHANDLE...

CITY           SKY/WX    TMP DP  RH WIND       PRES   REMARKS
CHADRON        CLOUDY    23  20  88 CALM      30.23F
ALLIANCE       CLOUDY    24  23  96 S8        30.24F WCI  15
SCOTTSBLUFF    CLOUDY    30  22  72 E9        30.23F WCI  22
SIDNEY         CLOUDY    29  24  82 SW12      30.27S WCI  19

...WESTERN AND NORTH CENTRAL NEBRASKA...

CITY           SKY/WX    TMP DP  RH WIND       PRES   REMARKS
VALENTINE      CLEAR     16  11  80 CALM      30.30S
AINSWORTH      CLOUDY    14  10  83 S5        30.31R WCI   7
ONEILL         CLEAR     12  10  90 CALM      30.35F
BROKEN BOW     CLEAR     17  10  74 CALM      30.33F
IMPERIAL       CLOUDY    27  21  78 S3        30.32R
NORTH PLATTE   CLEAR     21  13  71 CALM      30.34R
MCCOOK         CLOUDY    24  15  68 CALM      30.36S

...EASTERN NEBRASKA...

CITY           SKY/WX    TMP DP  RH WIND       PRES   REMARKS
NORFOLK        CLOUDY    17  12  80 W8        30.39R WCI   7
SO SIOUX CITY  CLOUDY    19   9  65 W7        30.40R WCI  10
TEKAMAH        CLOUDY    17   8  67 NW3       30.40R
COLUMBUS       CLOUDY    18  11  74 W5        30.42R WCI  11
ALBION         CLOUDY    13   9  84 CALM      30.39S
OMAHA EPPLEY   CLOUDY    22  11  62 CALM      30.41S
OFFUTT AFB     CLOUDY    24   9  52 CALM      30.40S
MILLARD        CLOUDY    25  12  58 NW5       30.41R WCI  19
LINCOLN        CLOUDY    22  12  65 MISG      30.43R
NEBRASKA CITY  CLOUDY    24  13  63 N7        30.41R WCI  16
BEATRICE       CLOUDY    18  13  79 NW7       30.41S WCI   9
FALLS CITY     CLOUDY    23  13  65 NW6       30.40S WCI  16

...NORTHERN KANSAS...

CITY           SKY/WX    TMP DP  RH WIND       PRES   REMARKS
GOODLAND       CLEAR     32  24  72 S7        30.33S WCI  26
HILL CITY      CLOUDY    23  15  71 SW3       30.40R
NORTON         CLEAR     21   9  58 S3        30.37S
PHILLIPSBURG   CLEAR     25  10  54 E3        30.41R
SMITH CENTER   CLEAR     18  10  73 CALM      30.42R
HAYS           CLOUDY    27  13  55 NE7       30.41  WCI  19
RUSSELL        CLOUDY    22  11  62 NW3       30.40R
CONCORDIA      CLOUDY    23  12  62 N6        30.42R WCI  16
SALINA         CLOUDY    31  14  49 NE9       30.42R WCI  23
TOPEKA         CLOUDY    26  15  63 NW6       30.41S WCI  19



USA.gov is the U.S. government's official web portal to all federal, state and local government web resources and services.